Middletown, OH

12:34 PM EST on December 09, 2016 (GMT -0500)
Hook Field Municipal

Weather History for KMWO - July, 2013

Change the Weather History Date:

Tuesday, July 23, 2013

  Actual Average (KFFO) Record (KFFO)
Temperature  
Mean Temperature 77 °F -  
Max Temperature 87 °F 82 °F 97 °F (2012)
Min Temperature 67 °F 61 °F 56 °F (2007)
Cooling Degree Days 12    
Growing Degree Days 27 (Base 50)    
Moisture  
Dew Point 72 °F    
Average Humidity 92    
Maximum Humidity 100    
Minimum Humidity 75    
Precipitation  
Precipitation 0.00 in - - ()
Sea Level Pressure  
Sea Level Pressure 29.81 in    
Wind  
Wind Speed 4 mph (WSW)    
Max Wind Speed 18 mph    
Max Gust Speed 34 mph    
Visibility 7 miles    
Events Fog , Rain    
Averages and records for this station are not official NWS values.
T = Trace of Precipitation, MM = Missing Value Source: NWS Daily Summary

Daily Weather History Graph

Daily Weather History Graph

Search for Another Location

Airport or City:

Trip Planner

Search our weather history database for the weather conditions in past years. The results will help you decide how hot, cold, wet, or windy it might be!

Date:

Astronomy

Jul. 23, 2013 Rise Set
Actual Time 6:29 AM EDT 8:58 PM EDT
Civil Twilight 5:58 AM EDT 9:29 PM EDT
Nautical Twilight 5:20 AM EDT 10:07 PM EDT
Astronomical Twilight 4:37 AM EDT 10:49 PM EDT
Moon 9:26 PM EDT (7/23) 7:36 AM EDT (7/23)
Length of Visible Light 15h 30m
Length of Day
14h 28m
Full, 99% of the Moon is Illuminated
Jul 23
Full
Jul 29
Last Quarter
Aug 6
New
Aug 14
First Quarter
Aug 20
Full

Hourly Weather History & Observations

Time (EDT) Temp. Heat Index Dew Point Humidity Pressure Visibility Wind Dir Wind Speed Gust Speed Precip Events Conditions
12:15 AM 67.6 °F - 67.6 °F 100% 29.84 in 1.0 mi Calm Calm - N/A   Mist
12:35 AM 67.8 °F - 67.8 °F 100% 29.83 in 1.5 mi Calm Calm - N/A   Mist
12:55 AM 67.6 °F - 67.6 °F 100% 29.83 in 0.5 mi Calm Calm - N/A Fog Fog
1:15 AM 67.6 °F - 67.6 °F 100% 29.84 in 1.8 mi Calm Calm - N/A   Mist
1:35 AM 67.6 °F - 67.6 °F 100% 29.84 in 3.0 mi Calm Calm - N/A   Clear
1:55 AM 67.6 °F - 67.6 °F 100% 29.84 in 2.5 mi WSW 3.5 mph - N/A   Clear
2:15 AM 67.6 °F - 67.6 °F 100% 29.85 in 4.0 mi Calm Calm - N/A   Clear
2:35 AM 67.6 °F - 67.6 °F 100% 29.85 in 0.5 mi Calm Calm - N/A Fog Fog
2:55 AM 67.6 °F - 67.6 °F 100% 29.85 in 0.5 mi Calm Calm - N/A Fog Fog
3:15 AM 67.6 °F - 67.6 °F 100% 29.85 in 2.5 mi SW 3.5 mph - N/A   Clear
3:35 AM 67.6 °F - 67.6 °F 100% 29.84 in 5.0 mi Calm Calm - N/A   Clear
3:55 AM 67.6 °F - 67.6 °F 100% 29.84 in 5.0 mi Calm Calm - N/A   Clear
4:15 AM 67.6 °F - 67.6 °F 100% 29.83 in 4.0 mi South 3.5 mph - N/A   Clear
4:35 AM 67.6 °F - 67.6 °F 100% 29.84 in 3.0 mi Calm Calm - N/A   Clear
4:55 AM 67.6 °F - 67.6 °F 100% 29.83 in 2.5 mi SSW 3.5 mph - N/A   Clear
5:15 AM 67.6 °F - 67.6 °F 100% 29.83 in 3.0 mi SW 4.6 mph - N/A   Clear
5:35 AM 67.6 °F - 67.6 °F 100% 29.83 in 1.2 mi South 4.6 mph - N/A   Mist
5:55 AM 67.6 °F - 67.6 °F 100% 29.83 in 4.0 mi SW 4.6 mph - N/A   Clear
6:15 AM 67.6 °F - 67.6 °F 100% 29.83 in 2.5 mi SW 4.6 mph - N/A   Scattered Clouds
6:35 AM 67.6 °F - 67.6 °F 100% 29.82 in 1.5 mi South 4.6 mph - N/A   Overcast
6:55 AM 67.6 °F - 67.6 °F 100% 29.83 in 1.2 mi West 4.6 mph - N/A   Mostly Cloudy
7:15 AM 67.6 °F - 67.6 °F 100% 29.83 in 1.0 mi WSW 3.5 mph - N/A   Mostly Cloudy
7:35 AM 67.6 °F - 67.6 °F 100% 29.82 in 2.0 mi WSW 3.5 mph - N/A   Clear
7:55 AM 70.2 °F - 70.2 °F 100% 29.81 in 2.0 mi SW 4.6 mph - N/A   Scattered Clouds
8:15 AM 72.7 °F - 72.7 °F 100% 29.82 in 3.0 mi WSW 4.6 mph - N/A   Clear
8:35 AM 72.7 °F - 72.7 °F 100% 29.83 in 4.0 mi WSW 4.6 mph - N/A   Clear
8:55 AM 72.7 °F - 72.7 °F 100% 29.82 in 7.0 mi SW 5.8 mph - N/A   Clear
9:15 AM 72.9 °F - 72.9 °F 100% 29.82 in 10.0 mi SW 4.6 mph - N/A   Clear
9:35 AM 75.2 °F - 74.3 °F 97% 29.82 in 10.0 mi SW 5.8 mph - N/A   Clear
9:55 AM 77.9 °F - 76.1 °F 94% 29.82 in 10.0 mi SW 4.6 mph - N/A   Clear
10:15 AM 77.9 °F - 75.0 °F 91% 29.83 in 10.0 mi SW 9.2 mph - N/A   Clear
10:35 AM 77.9 °F - 75.2 °F 91% 29.83 in 10.0 mi SW 5.8 mph - N/A   Clear
10:55 AM 79.0 °F - 75.9 °F 90% 29.83 in 10.0 mi SW 6.9 mph - N/A   Clear
11:15 AM 80.2 °F 85.8 °F 76.1 °F 87% 29.83 in 10.0 mi West 8.1 mph - N/A   Scattered Clouds
11:35 AM 81.3 °F 88.3 °F 76.3 °F 85% 29.83 in 10.0 mi West 9.2 mph - N/A   Scattered Clouds
11:55 AM 81.0 °F 87.1 °F 75.6 °F 84% 29.84 in 10.0 mi West 8.1 mph - N/A   Mostly Cloudy
12:15 PM 81.7 °F 88.5 °F 75.6 °F 82% 29.83 in 10.0 mi WSW 9.2 mph 17.3 mph N/A   Mostly Cloudy
12:35 PM 84.9 °F 96.6 °F 78.1 °F 80% 29.82 in 10.0 mi WSW 9.2 mph - N/A   Scattered Clouds
12:55 PM 86.4 °F 99.3 °F 78.4 °F 77% 29.81 in 10.0 mi WSW 9.2 mph 17.3 mph N/A   Scattered Clouds
1:15 PM 85.3 °F 96.7 °F 77.5 °F 78% 29.81 in 10.0 mi WSW 8.1 mph - N/A   Mostly Cloudy
1:35 PM 87.8 °F 102.5 °F 79.0 °F 75% 29.81 in 10.0 mi West 12.7 mph 17.3 mph N/A   Scattered Clouds
1:55 PM 87.8 °F 103.1 °F 79.3 °F 76% 29.79 in 10.0 mi WSW 10.4 mph 18.4 mph N/A   Scattered Clouds
2:15 PM 87.8 °F 102.5 °F 79.0 °F 75% 29.79 in 10.0 mi WSW 11.5 mph 16.1 mph N/A   Scattered Clouds
2:35 PM 83.7 °F 92.0 °F 75.7 °F 77% 29.78 in 10.0 mi West 8.1 mph - N/A   Scattered Clouds
2:55 PM 81.5 °F 87.8 °F 75.2 °F 81% 29.78 in 10.0 mi NNW 12.7 mph 20.7 mph N/A   Scattered Clouds
3:15 PM 72.3 °F - 67.5 °F 85% 29.79 in 1.8 mi NW 10.4 mph 34.5 mph N/A Rain Heavy Rain
3:35 PM 69.1 °F - 68.0 °F 96% 29.79 in 7.0 mi West 13.8 mph - N/A Rain Light Rain
4:15 PM 72.7 °F - 71.4 °F 96% 29.77 in 10.0 mi WNW 6.9 mph - N/A Rain Light Rain
4:35 PM 72.7 °F - 70.7 °F 93% 29.78 in 10.0 mi WSW 11.5 mph - N/A   Scattered Clouds
4:55 PM 72.7 °F - 70.9 °F 94% 29.78 in 10.0 mi SW 17.3 mph 27.6 mph N/A   Scattered Clouds
5:15 PM 75.2 °F - 71.2 °F 87% 29.78 in 10.0 mi SW 18.4 mph 25.3 mph N/A   Mostly Cloudy
5:35 PM 75.4 °F - 71.4 °F 87% 29.78 in 10.0 mi WSW 11.5 mph 16.1 mph N/A   Scattered Clouds
5:55 PM 77.9 °F - 72.7 °F 84% 29.76 in 10.0 mi West 4.6 mph 9.2 mph N/A   Clear
6:15 PM 79.0 °F - 72.9 °F 81% 29.75 in 10.0 mi WSW 6.9 mph - N/A   Clear
6:35 PM 79.0 °F - 72.5 °F 80% 29.75 in 10.0 mi WSW 8.1 mph - N/A   Clear
6:55 PM 77.9 °F - 72.0 °F 82% 29.76 in 10.0 mi SW 9.2 mph - N/A   Scattered Clouds
7:15 PM 77.9 °F - 72.5 °F 83% 29.76 in 10.0 mi SW 6.9 mph - N/A   Scattered Clouds
7:35 PM 77.9 °F - 73.2 °F 85% 29.76 in 10.0 mi WSW 5.8 mph - N/A   Scattered Clouds
7:55 PM 77.9 °F - 74.1 °F 88% 29.76 in 10.0 mi WSW 4.6 mph - N/A   Mostly Cloudy
8:15 PM 77.9 °F - 75.2 °F 91% 29.76 in 10.0 mi Calm Calm - N/A   Mostly Cloudy
8:35 PM 77.9 °F - 75.6 °F 92% 29.76 in 10.0 mi NW 4.6 mph - N/A   Scattered Clouds
8:55 PM 75.2 °F - 73.8 °F 95% 29.77 in 10.0 mi SW 3.5 mph - N/A   Scattered Clouds
9:15 PM 75.2 °F - 75.0 °F 99% 29.78 in 10.0 mi West 3.5 mph - N/A   Mostly Cloudy
9:35 PM 75.2 °F - 75.0 °F 99% 29.79 in 10.0 mi NW 5.8 mph - N/A   Overcast
9:55 PM 75.2 °F - 71.6 °F 89% 29.81 in 10.0 mi North 8.1 mph - N/A   Overcast
10:15 PM 75.2 °F - 71.1 °F 87% 29.82 in 10.0 mi North 10.4 mph 17.3 mph N/A   Mostly Cloudy
10:35 PM 72.7 °F - 69.1 °F 88% 29.83 in 10.0 mi North 10.4 mph - N/A   Mostly Cloudy
10:55 PM 72.7 °F - 69.8 °F 91% 29.84 in 10.0 mi North 11.5 mph 16.1 mph N/A   Scattered Clouds
11:15 PM 72.7 °F - 68.5 °F 87% 29.85 in 10.0 mi North 11.5 mph 18.4 mph N/A   Scattered Clouds
11:35 PM 72.7 °F - 68.2 °F 86% 29.85 in 10.0 mi North 10.4 mph - N/A   Clear
11:55 PM 68.7 °F - 64.8 °F 87% 29.85 in 10.0 mi North 10.4 mph 17.3 mph N/A   Clear